Midland International Airport
KMAF : now visible

Airfield :











YOU CAN JOIN US ON...

 
LOGIN :

Register | Disclaimer

   EN    FR    IT 

 









Legend :    VFR   Marginal VFR   IFR   Intensive IFR   Very Intensive IFR
Visi :
Ceiling :
>= 8 km
>= 3000ft
5 to 8 km
1000 to 3000 ft
1500m to 5 km
500 to 1000 ft
800 to 1500m
200 to 500 ft
< 800m
< 200 ft
Symbols :   Thunderstorms  Fog  Heavy snow  Heavy precipitations  Wind > 20 kt






- Airport Elevation : 2871 ft
- IATA code : MAF


KMAF - Midland International

CURRENT METAR :
  • 192053Z 19007KT 160V230 10SM CLR 23/10 A2998 RMK AO2 SLP124 T02280100 56033

EXPIRED METARs :
  • 191953Z 15009KT 10SM CLR 21/09 A3001 RMK AO2 SLP135 T02060094
  • 191853Z VRB03KT 9SM CLR 17/08 A3006 RMK AO2 SLP154 T01670083

TAF KMAF
Valid from the 19 at 18:00 until the 20 at 18:00 UTC


191810Z 1918/2018 14008KT P6SM SKC
FM200700 14007KT P6SM BKN015
FM201100 13008KT 6SM BR BKN009
KZFW FIR / North America



MET'MAP, your aeronautical weather chart ! - Copyright ORBIFLY December 2007 - Disclaimer

ORBIFLY MET'MAP TEAM :

Programming & Development : Alexandra Zaïnal
Concept & original design : Baudouin d'Aumeries
Assistance for programming : Marc-Olivier Méhu
Technical & hardware support : Manuel Goepfert

Contact : metmap@orbifly.com




SOURCES & CREDITS :

   NOAA       Earth
Advisory